Retour au catalogue

AAC-AIS-SAT-1

ActifScienceSSO
NORAD 55107·PAYLOAD·🇬🇧 United Kingdom

Lancé Jan 3, 2023 depuis Cape Canaveral Space Force Station

Loading…

Prochains Passages (prochaines 24 heures)

TLE

FraisSource: Space-Track

Époque: Sep 14, 2026, 13:01 UTC

1 55107U 23001DC  26257.54270981  .00003289  00000-0  32375-3 0  9997
2 55107  97.9133 334.7918 0008756 351.7941   8.3134 14.92767450191615

Suivez AAC-AIS-SAT-1 en temps réel avec AllMySat

Download on the App Store